User: anonymous   Login
Location: Marcé
(47.5801°N, 0.3280°W)
Time: 08:27:55
(UTC+01:00)
Language:

COSMOS 2251 DEB - Orbit

View from above orbital plane
View from above orbital plane
View from above satellite
View from above satellite

Ground track
Ground track

The orbit data is extracted from the following two-line orbital elements,

1 36557U 93036BDT 22326.04832321  .00004381  00000-0  12480-2 0  9998
2 36557  73.9890  98.3281 0037062 143.5439 216.8253 14.45157624176181
Epoch (UTC): 22 November 2022 01:09:35
Eccentricity: 0.0037062
inclination: 73.9890°
perigee height: 715 km
apogee height: 768 km
right ascension of ascending node: 98.3281°
argument of perigee: 143.5439°
revolutions per day: 14.45157624
mean anomaly at epoch: 216.8253°
orbit number at epoch: 17618

The dashed part of the orbit path shows where the satellite is in the earth's shadow,  

DLR